Tracking 20093 objects as of 15-Dec-2019
HD Live streaming from Space Station
objects crossing your sky now

FENGYUN 1C DEB

Track FENGYUN 1C DEB now!
10-day predictions


NORAD ID: 37405
Int'l Code: 1999-025EFX
Perigee: 652.1 km
Apogee: 777.0 km
Inclination: 98.6 °
Period: 98.9 minutes
Semi major axis: 7085 km
RCS: 0.0122 m2 (small)
Launch date: May 10, 1999
Source: People's Republic of China (PRC)
Launch site: Taiyaun Space Center, China (TSC)

Note: This is SATELLITE DEBRIS
aabbcc
Your satellite tracking list
Your tracking list is empty




NASA's NSSDC Master Catalog

Two Line Element Set (TLE):
1 37405U 99025EFX 19339.48829194  .00001179  00000-0  26826-3 0  9999
2 37405  98.5787  67.5669 0088104 238.2997 120.9588 14.55601318566762
Source of the keplerian elements: AFSPC